Location: Clarion
(42.7316°N, 93.7330°W)
Time: 02:31:34
(UTC+00:00)

Resurs 01 Rocket - Pass Details

Date: 22 April 2026
Orbit: 626 x 636 km, 97.7° (Epoch: 20 May)

Event Time Altitude Azimuth Distance (km) Brightness Sun altitude
Rises 01:43:19 0° 188° (S) 2,905 4.8 -7.5°
Reaches altitude 10° 01:45:41 10° 198° (SSW) 2,001 4.1 -7.9°
Maximum altitude 01:49:38 34° 263° (W) 1,050 3.4 -8.6°
Drops below altitude 10° 01:53:37 10° 329° (NNW) 2,012 5.2 -9.2°
Sets 01:56:00 0° 339° (NNW) 2,923 5.8 -9.6°
